Orbital Elements at Epoch 2459200.5 (2020-Dec-17.0) TDB
Reference: JPL 26 (heliocentric ecliptic J2000)
Element | Value | Uncertainty (1-sigma) | Units |
e | .2249173947206352 | 4.2704e-08 | |
a | 2.301073245837162 | 6.962e-09 | au |
q | 1.783521846322112 | 9.82e-08 | au |
i | 8.157990492861897 | 5.4255e-06 | deg |
node | 56.87095047369533 | 3.249e-05 | deg |
peri | 84.92725217405477 | 3.6133e-05 | deg |
M | 2.867088354270817 | 1.3932e-05 | deg |
tp | 2459190.346105019746 (2020-Dec-06.84610502) | 4.9325e-05 | TDB |
period | 1274.95275387884 3.49 | 5.7861e-06 1.584e-08 | d yr |
n | .2823634043730308 | 1.2815e-09 | deg/d |
Q | 2.818624645352212 | 8.5279e-09 | au |
|
| | Orbit Determination Parameters
Additional Information
|